When you browse on this site, cookies collect data to enhance your experience and personalize the content and advertising you see.
Visit our Privacy Policy to learn more. By continuing to use the site, you agree to this use of cookies and data.
  • In Schweiz
  • Länderverzeichnis
  • Für 7 Tage
  • Wassertemperatur
  • Satellitenkarten
  • Wetterkarte
  • Widgets
  • user-avatar
    Anmelden

    Stündliche Wetter Fier

    Heute, 21 Januar, Montag

    Zeit Temperatur Niederschläge Wind Luftdruck Luftfeuchtigkeit
    00:00 +8°C° 0 mm 2 m/S 760 mmHg 79%
    01:00 +8°C° 0 mm 2 m/S 760 mmHg 77%
    02:00 +7°C° 0 mm 2 m/S 760 mmHg 76%
    03:00 +7°C° 0 mm 2 m/S 760 mmHg 76%
    04:00 +7°C° 0 mm 2 m/S 759 mmHg 75%
    05:00 +7°C° 0 mm 2 m/S 759 mmHg 74%
    06:00 +7°C° 0 mm 2 m/S 760 mmHg 73%
    07:00 +7°C° 0 mm 3 m/S 760 mmHg 70%
    08:00 +8°C° 0 mm 2 m/S 760 mmHg 65%
    09:00 +10°C° 0 mm 2 m/S 760 mmHg 60%
    10:00 +13°C° 0 mm 2 m/S 760 mmHg 55%
    11:00 +14°C° 0 mm 2 m/S 760 mmHg 52%
    12:00 +15°C° 0 mm 2 m/S 759 mmHg 49%
    13:00 +16°C° 0 mm 2 m/S 759 mmHg 47%
    14:00 +15°C° 0 mm 2 m/S 759 mmHg 52%
    15:00 +14°C° 0 mm 2 m/S 759 mmHg 58%
    16:00 +14°C° 0 mm 2 m/S 759 mmHg 63%
    17:00 +13°C° 0.2 mm 2 m/S 759 mmHg 66%
    18:00 +11°C° 0.2 mm 3 m/S 759 mmHg 69%
    19:00 +10°C° 0.2 mm 3 m/S 759 mmHg 72%
    20:00 +10°C° 0.1 mm 3 m/S 759 mmHg 73%
    21:00 +10°C° 0.1 mm 4 m/S 759 mmHg 73%
    22:00 +8°C° 0.1 mm 4 m/S 759 mmHg 73%
    23:00 +8°C° 0 mm 4 m/S 759 mmHg 73%

    Morgen, 22 Januar, Dienstag

    Zeit Temperatur Niederschläge Wind Luftdruck Luftfeuchtigkeit
    00:00 +8°C° 0 mm 4 m/S 759 mmHg 73%
    01:00 +8°C° 0 mm 4 m/S 759 mmHg 73%
    02:00 +8°C° 0.1 mm 4 m/S 758 mmHg 73%
    03:00 +8°C° 0.1 mm 4 m/S 758 mmHg 73%
    04:00 +8°C° 0.1 mm 4 m/S 757 mmHg 73%
    05:00 +8°C° 0.5 mm 4 m/S 757 mmHg 74%
    06:00 +8°C° 0.5 mm 5 m/S 756 mmHg 75%
    07:00 +8°C° 0.5 mm 5 m/S 756 mmHg 76%
    08:00 +9°C° 0.2 mm 5 m/S 756 mmHg 73%
    09:00 +9°C° 0.2 mm 5 m/S 756 mmHg 70%
    10:00 +10°C° 0.2 mm 5 m/S 756 mmHg 67%
    11:00 +10°C° 0.5 mm 6 m/S 755 mmHg 69%
    12:00 +10°C° 0.5 mm 6 m/S 754 mmHg 71%
    13:00 +11°C° 0.5 mm 6 m/S 754 mmHg 73%
    14:00 +10°C° 0.5 mm 5 m/S 753 mmHg 75%
    15:00 +10°C° 0.5 mm 5 m/S 753 mmHg 77%
    16:00 +9°C° 0.5 mm 5 m/S 752 mmHg 80%
    17:00 +10°C° 1.1 mm 4 m/S 752 mmHg 81%
    18:00 +10°C° 1.1 mm 4 m/S 752 mmHg 83%
    19:00 +10°C° 1.1 mm 4 m/S 752 mmHg 85%
    20:00 +8°C° 0.7 mm 4 m/S 752 mmHg 84%
    21:00 +8°C° 0.7 mm 4 m/S 753 mmHg 84%
    22:00 +8°C° 0.7 mm 4 m/S 753 mmHg 83%
    23:00 +8°C° 0.3 mm 4 m/S 753 mmHg 84%

    übermorgen, 23 Januar, Mittwoch

    Zeit Temperatur Niederschläge Wind Luftdruck Luftfeuchtigkeit
    00:00 +8°C° 0.3 mm 4 m/S 753 mmHg 84%
    01:00 +7°C° 0.3 mm 4 m/S 753 mmHg 85%
    02:00 +7°C° 0.5 mm 4 m/S 753 mmHg 85%
    03:00 +7°C° 0.5 mm 4 m/S 752 mmHg 86%
    04:00 +6°C° 0.5 mm 4 m/S 752 mmHg 87%
    05:00 +6°C° 0.3 mm 4 m/S 752 mmHg 85%
    06:00 +6°C° 0.3 mm 4 m/S 752 mmHg 84%
    07:00 +7°C° 0.3 mm 3 m/S 752 mmHg 83%
    08:00 +7°C° 0.3 mm 4 m/S 752 mmHg 78%
    09:00 +10°C° 0.3 mm 4 m/S 752 mmHg 74%
    10:00 +10°C° 0.3 mm 5 m/S 752 mmHg 70%
    11:00 +12°C° 0.1 mm 5 m/S 751 mmHg 65%
    12:00 +12°C° 0.1 mm 5 m/S 751 mmHg 60%
    13:00 +13°C° 0.1 mm 5 m/S 750 mmHg 56%
    14:00 +13°C° 0 mm 4 m/S 750 mmHg 59%
    15:00 +12°C° 0 mm 3 m/S 749 mmHg 62%
    16:00 +12°C° 0 mm 2 m/S 749 mmHg 65%
    17:00 +12°C° 0 mm 1 m/S 749 mmHg 68%
    18:00 +11°C° 0 mm 1 m/S 748 mmHg 70%
    19:00 +9°C° 0 mm 0 m/S 748 mmHg 73%
    20:00 +10°C° 0 mm 1 m/S 748 mmHg 74%
    21:00 +10°C° 0 mm 1 m/S 748 mmHg 74%
    22:00 +10°C° 0 mm 1 m/S 748 mmHg 75%
    23:00 +9°C° 0.1 mm 1 m/S 747 mmHg 76%

    24 Januar, Donnerstag

    Zeit Temperatur Niederschläge Wind Luftdruck Luftfeuchtigkeit
    00:00 +9°C° 0.1 mm 1 m/S 747 mmHg 77%
    01:00 +9°C° 0.1 mm 1 m/S 746 mmHg 78%
    02:00 +9°C° 0 mm 1 m/S 746 mmHg 79%
    03:00 +8°C° 0 mm 1 m/S 745 mmHg 80%
    04:00 +8°C° 0 mm 1 m/S 744 mmHg 81%
    05:00 +8°C° 0 mm 1 m/S 744 mmHg 81%
    06:00 +8°C° 0 mm 1 m/S 744 mmHg 81%
    07:00 +8°C° 0 mm 1 m/S 744 mmHg 80%
    08:00 +9°C° 0.1 mm 1 m/S 744 mmHg 78%
    09:00 +8°C° 0.1 mm 0 m/S 744 mmHg 76%
    10:00 +9°C° 0.1 mm 0 m/S 744 mmHg 73%
    11:00 +10°C° 1 mm 1 m/S 744 mmHg 78%
    12:00 +10°C° 1 mm 1 m/S 744 mmHg 82%
    13:00 +9°C° 1 mm 1 m/S 744 mmHg 86%
    14:00 +9°C° 0.3 mm 1 m/S 745 mmHg 85%
    15:00 +10°C° 0.3 mm 1 m/S 745 mmHg 85%
    16:00 +10°C° 0.3 mm 1 m/S 745 mmHg 84%
    17:00 +9°C° 0 mm 1 m/S 745 mmHg 85%
    18:00 +9°C° 0 mm 1 m/S 746 mmHg 87%
    19:00 +7°C° 0 mm 2 m/S 746 mmHg 88%
    20:00 +7°C° 0 mm 2 m/S 747 mmHg 88%
    21:00 +7°C° 0 mm 2 m/S 747 mmHg 87%
    22:00 +7°C° 0 mm 2 m/S 747 mmHg 86%
    23:00 +7°C° 0.1 mm 3 m/S 747 mmHg 84%

    25 Januar, Freitag

    Zeit Temperatur Niederschläge Wind Luftdruck Luftfeuchtigkeit
    00:00 +7°C° 0.1 mm 3 m/S 746 mmHg 82%
    01:00 +7°C° 0.1 mm 3 m/S 746 mmHg 80%
    02:00 +7°C° 0.6 mm 2 m/S 746 mmHg 81%
    03:00 +7°C° 0.6 mm 2 m/S 746 mmHg 81%
    04:00 +8°C° 0.6 mm 1 m/S 746 mmHg 82%
    05:00 +7°C° 1.1 mm 2 m/S 746 mmHg 84%
    06:00 +7°C° 1.1 mm 2 m/S 746 mmHg 85%
    07:00 +7°C° 1.1 mm 2 m/S 747 mmHg 86%
    08:00 +7°C° 0.3 mm 2 m/S 747 mmHg 84%
    09:00 +8°C° 0.3 mm 2 m/S 747 mmHg 81%
    10:00 +8°C° 0.3 mm 2 m/S 747 mmHg 79%
    11:00 +8°C° 1.1 mm 2 m/S 747 mmHg 80%
    12:00 +8°C° 1.1 mm 2 m/S 747 mmHg 80%
    13:00 +9°C° 1.1 mm 1 m/S 747 mmHg 81%
    14:00 +8°C° 0.7 mm 2 m/S 747 mmHg 82%
    15:00 +8°C° 0.7 mm 2 m/S 747 mmHg 83%
    16:00 +8°C° 0.7 mm 3 m/S 747 mmHg 85%
    17:00 +7°C° 0.2 mm 3 m/S 747 mmHg 84%
    18:00 +7°C° 0.2 mm 3 m/S 747 mmHg 83%
    19:00 +7°C° 0.2 mm 3 m/S 748 mmHg 83%
    20:00 +7°C° 0 mm 3 m/S 748 mmHg 81%
    21:00 +5°C° 0 mm 3 m/S 748 mmHg 80%
    22:00 +5°C° 0 mm 3 m/S 748 mmHg 79%
    23:00 +5°C° 0 mm 3 m/S 748 mmHg 78%

    26 Januar, Samstag

    Zeit Temperatur Niederschläge Wind Luftdruck Luftfeuchtigkeit
    00:00 +4°C° 0 mm 4 m/S 748 mmHg 77%
    01:00 +4°C° 0 mm 4 m/S 749 mmHg 77%
    02:00 +4°C° 0 mm 4 m/S 749 mmHg 76%
    03:00 +4°C° 0 mm 4 m/S 749 mmHg 76%
    04:00 +4°C° 0 mm 4 m/S 749 mmHg 76%
    05:00 +4°C° 0 mm 4 m/S 749 mmHg 75%
    06:00 +3°C° 0 mm 4 m/S 750 mmHg 74%
    07:00 +3°C° 0 mm 4 m/S 751 mmHg 74%
    08:00 +4°C° 0 mm 3 m/S 751 mmHg 68%
    09:00 +7°C° 0 mm 3 m/S 751 mmHg 63%
    10:00 +8°C° 0 mm 3 m/S 752 mmHg 57%
    11:00 +9°C° 0 mm 3 m/S 752 mmHg 55%
    12:00 +10°C° 0 mm 4 m/S 752 mmHg 52%
    13:00 +11°C° 0 mm 4 m/S 752 mmHg 50%
    14:00 +10°C° 0 mm 4 m/S 752 mmHg 53%
    15:00 +10°C° 0 mm 4 m/S 753 mmHg 57%
    16:00 +10°C° 0 mm 4 m/S 753 mmHg 60%
    17:00 +8°C° 0 mm 4 m/S 753 mmHg 64%
    18:00 +8°C° 0 mm 3 m/S 754 mmHg 67%
    19:00 +7°C° 0 mm 3 m/S 754 mmHg 70%
    20:00 +5°C° 0 mm 3 m/S 755 mmHg 70%
    21:00 +6°C° 0 mm 2 m/S 755 mmHg 71%
    22:00 +5°C° 0 mm 2 m/S 755 mmHg 71%
    23:00 +5°C° 0 mm 2 m/S 755 mmHg 71%
    Mehr zeigen